[[[{"header":{"parameterUnit":"kt","parameterCategory":2,"dx":1,"dy":1,"la1":30.253999710083008,"la2":30.299108505249023,"lo1":-89.0895004272461,"lo2":-89.04439544677734,"nx":28,"ny":28,"refTime":"2022-09-21T21:00:00:Z","depth":"0","parameterNumber":2,"parameterNumberName":"U-component_of_CURRENTS"},"data":[0.0612,0.0681,0.0737,0.087,0.096,0.1096,0.1192,0.1377,0.1583,0.1972,0.2285,0.2543,0.3122,0.3891,0.4192,0.4104,0.3907,0.3999,0.3802,0.3743,0.3681,0.3623,0.3663,0.4207,0.4208,0.397,0.397,0.397,0.0627,0.0694,0.0784,0.0895,0.0976,0.103,0.1186,0.1304,0.1494,0.1738,0.1948,0.2461,0.2813,0.3053,0.338,0.3462,0.3294,0.3505,0.3432,0.3322,0.3113,0.3147,0.359,0.359,0.3589,0.3589,0.3589,0.3589,0.0653,0.0702,0.0781,0.0869,0.0953,0.1051,0.1148,0.1275,0.142,0.1638,0.176,0.2027,0.2413,0.2618,0.2622,0.2841,0.2623,0.2859,0.2878,0.2768,0.2742,0.2465,0.2769,0.2767,0.2765,0.2763,0.2761,0,0.0658,0.0705,0.0764,0.0852,0.093,0.1025,0.1129,0.1198,0.1322,0.1439,0.1642,0.178,0.2017,0.2214,0.2309,0.2318,0.2239,0.2235,0.2333,0.2566,0.2517,0.244,0.2025,0.2328,0.2323,0.2319,0.2316,0.2314,0.0679,0.07,0.0808,0.0854,0.089,0.0989,0.1048,0.1137,0.1206,0.1386,0.1443,0.1608,0.1738,0.1887,0.1919,0.1976,0.1911,0.2116,0.2008,0.2135,0.2152,0.2054,0.1989,0.226,0.2267,0.2272,0.2277,0,0.0703,0.072,0.0775,0.0854,0.0889,0.0952,0.1063,0.1124,0.1193,0.1301,0.1332,0.1415,0.1534,0.1532,0.1572,0.1542,0.1678,0.1619,0.1789,0.1808,0.2009,0.2028,0.2275,0.2235,0.1796,0.18,0.1804,0,0.0722,0.0748,0.0801,0.081,0.0894,0.0919,0.1015,0.1054,0.1127,0.1203,0.1206,0.1288,0.1258,0.1325,0.128,0.1382,0.1356,0.1357,0.1357,0.148,0.1498,0.1582,0.16,0.1245,0.1243,0.1242,0.1241,0,0.0729,0.075,0.0782,0.0789,0.083,0.0879,0.092,0.0971,0.1015,0.1085,0.1126,0.1163,0.1198,0.1201,0.1184,0.1112,0.1267,0.1156,0.1273,0.128,0.1409,0.1423,0.179,0.1239,0.1239,0.1238,0.1238,0,0.0715,0.0714,0.0735,0.0791,0.0796,0.0824,0.0902,0.0925,0.0974,0.0982,0.1013,0.099,0.1044,0.0962,0.1028,0.0972,0.0972,0.096,0.0965,0.1016,0.0938,0.1234,0.1494,0.1615,0.0988,0.0986,0.0984,0,0.0739,0.0722,0.0701,0.0732,0.0733,0.0737,0.0771,0.079,0.08,0.0835,0.083,0.0841,0.077,0.0776,0.0806,0.0783,0.0848,0.0757,0.0788,0.079,0.0877,0.1088,0.1263,0.1442,0.0954,0.0957,0.0959,0,0.0733,0.069,0.0686,0.07,0.0666,0.0663,0.0691,0.0704,0.0737,0.0705,0.075,0.0723,0.0701,0.0675,0.0631,0.0664,0.0797,0.06,0.0598,0.067,0.0919,0.1031,0.1061,0.0757,0.076,0.0763,0.0935,0,0.0725,0.0706,0.0692,0.0643,0.064,0.0628,0.0599,0.0608,0.0586,0.056,0.0582,0.0525,0.0497,0.0493,0.0437,0.052,0.05,0.0437,0.0362,0.048,0.0539,0.0559,0.0281,0.0278,0.0275,0.0273,0,0,0.0746,0.0686,0.0628,0.0603,0.0592,0.0536,0.0534,0.0515,0.044,0.0446,0.0402,0.0353,0.0291,0.0318,0.0349,0.0312,0.0329,0.0271,0.0415,0.0431,0.0446,0.0508,0.053,0.0268,0.0267,0.0266,0.0265,0,0.0703,0.0661,0.0634,0.0605,0.0546,0.0508,0.0507,0.0425,0.0409,0.0388,0.0323,0.0315,0.0228,0.0208,0.0183,0.0272,0.0212,0.0253,0.0349,0.039,0.041,0.0427,0.0494,0.0515,0.0259,0.0259,0.0259,0,0.069,0.0623,0.0602,0.0524,0.0476,0.0456,0.0387,0.0353,0.035,0.0235,0.0212,0.0167,0.0095,0.0092,0.0081,0.0038,0.0117,0.0051,0.0064,0.0061,0.0099,0.0122,0.0143,-0.0123,-0.0124,-0.0124,0,0,0.0666,0.0625,0.0538,0.0506,0.0485,0.0406,0.0382,0.0338,0.0272,0.025,0.0175,0.0113,0.0081,0.005,0.0002,-0.0007,-0.0016,0.0009,0.0027,0.0042,0.0048,0.0089,0.0112,-0.0127,-0.0127,-0.0128,0,0,0.0641,0.0529,0.0504,0.0458,0.0413,0.0309,0.0303,0.0262,0.0218,0.021,0.0104,0.008,0.0068,0.0002,-0.0023,-0.0022,-0.0101,-0.0099,0.0025,0.0046,0.0063,0.0083,-0.0132,0,0,0,0,0,0.0555,0.0544,0.0523,0.0503,0.0384,0.0327,0.0315,0.0246,0.0214,0.0221,0.0157,0.0079,-0.0021,-0.0047,-0.0068,-0.0032,-0.0165,-0.0159,-0.0152,0.0004,0.0027,0.0047,0,0,0,0,0,0,0.0546,0.052,0.0522,0.0416,0.0389,0.0326,0.0257,0.0239,0.0212,0.0203,0.0096,0.0075,-0.0001,-0.0044,-0.0061,-0.0024,-0.0127,-0.0163,-0.0157,-0.0152,0.0012,0.0031,0.0047,0,0,0,0,0,0.0539,0.0518,0.0341,0.0417,0.0393,0.0301,0.0256,0.0241,0.0222,0.0106,0.0085,0.0172,0.0002,-0.0019,-0.0055,-0.0013,-0.0115,-0.0121,-0.0159,-0.0155,-0.0151,0.0021,0,0,0,0,0,0,0.0533,0.0512,0.0336,0.0327,0.0407,0.0304,0.0284,0.0243,0.0124,0.0104,0.0174,0.0169,0.0004,-0.0013,-0.0028,-0.0002,-0.0106,-0.0112,-0.0116,-0.0156,-0.0152,-0.0149,0,0,0,0,0,0,0.0522,0.0505,0.0332,0.0323,0.0313,0.0308,0.0289,0.023,0.0122,0.0199,0.0191,0.0173,0.0012,-0.0008,-0.0021,-0.0109,-0.0099,-0.0105,-0.0109,-0.0112,-0.0153,-0.015,0,0,0,0,0,0,0.0514,0.0499,0.0325,0.0317,0.0308,0.0207,0.0253,0.0128,0.0141,0.0205,0.0137,0.0135,0.0018,0.0004,-0.0015,-0.0097,-0.0106,-0.0099,-0.0103,-0.0106,-0.0108,0,0,0,0,0,0,0,0.0508,0.0618,0.0385,0.0312,0.0304,0.0246,0.0244,0.0242,0.0141,0.0139,0.0138,0.0136,-0.0065,-0.0071,-0.0078,-0.0087,0,0,-0.0099,-0.0101,0,0,0,0,0,0,0,0,0.0624,0.062,0.0385,0.0383,0.0381,0.0246,0.0244,0.0242,0.014,0.0139,0.0138,0.0137,-0.0067,-0.0072,-0.0077,0,0,0,0,0,0,0,0,0,0,0,0,0,0,0,0.0384,0.0383,0,0.0246,0.0244,0.0243,0.014,0.0139,0.0138,0.0137,-0.0068,-0.0072,-0.0077,0,0,0,0,0,0,0,0,0,0,0,0,0,0,0,0,0,0,0,0,0,0,0,0,0,0,0,0,0,0,0,0,0,0,0,0,0,0,0,0,0,0,0,0,0,0,0,0,0,0,0,0,0,0,0,0,0,0,0,0,0,0,0,0,0,0,0,0,0]}],[{"header":{"parameterUnit":"kt","parameterCategory":2,"dx":1,"dy":1,"la1":30.253999710083008,"la2":30.299108505249023,"lo1":-89.0895004272461,"lo2":-89.04439544677734,"nx":28,"ny":28,"refTime":"2022-09-21T21:00:00:Z","depth":"0","parameterNumber":3,"parameterNumberName":"V-component_of_CURRENTS"},"data":[-0.1897,-0.174,-0.1667,-0.143,-0.1327,-0.1164,-0.1097,-0.1005,-0.0943,-0.0796,-0.0749,-0.0769,-0.0928,-0.1821,-0.2482,-0.2744,-0.308,-0.3236,-0.3348,-0.2988,-0.2962,-0.2937,-0.2933,-0.3174,-0.3174,-0.389,-0.3894,-0.3896,-0.1952,-0.185,-0.1734,-0.1571,-0.1458,-0.1437,-0.1325,-0.1246,-0.1134,-0.106,-0.1014,-0.1153,-0.1537,-0.1956,-0.2444,-0.2753,-0.307,-0.293,-0.3071,-0.3179,-0.2823,-0.2823,-0.3045,-0.3044,-0.3044,-0.3044,-0.3044,-0.3044,-0.2054,-0.197,-0.184,-0.172,-0.163,-0.152,-0.1442,-0.138,-0.1289,-0.1167,-0.1241,-0.1211,-0.1578,-0.1971,-0.2233,-0.2645,-0.2626,-0.272,-0.2626,-0.2745,-0.2883,-0.2489,-0.2656,-0.2655,-0.2655,-0.2654,-0.2653,0,-0.2098,-0.2062,-0.1945,-0.1815,-0.1735,-0.1634,-0.1543,-0.1514,-0.1436,-0.1391,-0.135,-0.1369,-0.1613,-0.1814,-0.2086,-0.2244,-0.2432,-0.2371,-0.2453,-0.2446,-0.259,-0.273,-0.2276,-0.2421,-0.2419,-0.2417,-0.2416,-0.2415,-0.2179,-0.2099,-0.1941,-0.1872,-0.1799,-0.17,-0.1632,-0.1569,-0.1528,-0.1468,-0.1441,-0.1502,-0.153,-0.1754,-0.1958,-0.2158,-0.2216,-0.2315,-0.2295,-0.2383,-0.2316,-0.243,-0.2542,-0.2392,-0.2395,-0.2398,-0.24,0,-0.2217,-0.2121,-0.1982,-0.1823,-0.1782,-0.1707,-0.161,-0.1563,-0.1534,-0.1488,-0.1484,-0.1496,-0.1583,-0.1684,-0.1808,-0.1903,-0.2118,-0.2077,-0.2116,-0.2142,-0.2336,-0.2261,-0.2554,-0.2703,-0.2243,-0.2245,-0.2247,0,-0.2226,-0.2128,-0.1975,-0.1905,-0.179,-0.1703,-0.1633,-0.1585,-0.1547,-0.1503,-0.153,-0.1519,-0.1597,-0.1667,-0.1749,-0.1886,-0.1864,-0.1964,-0.1986,-0.2015,-0.2023,-0.2111,-0.2041,-0.1914,-0.1913,-0.1912,-0.1911,0,-0.228,-0.2106,-0.1977,-0.1931,-0.1768,-0.1729,-0.1659,-0.1607,-0.1569,-0.156,-0.1549,-0.1576,-0.1579,-0.1662,-0.1731,-0.1717,-0.1837,-0.1822,-0.1939,-0.1944,-0.2003,-0.2011,-0.2189,-0.191,-0.1909,-0.1909,-0.1909,0,-0.2285,-0.2166,-0.2013,-0.1882,-0.1843,-0.177,-0.1684,-0.1615,-0.1589,-0.1575,-0.1579,-0.1577,-0.1592,-0.1603,-0.1682,-0.1651,-0.1711,-0.174,-0.1746,-0.1795,-0.1795,-0.1959,-0.2033,-0.2121,-0.1809,-0.1808,-0.1807,0,-0.2371,-0.2194,-0.2129,-0.1988,-0.1896,-0.185,-0.1782,-0.171,-0.1676,-0.1634,-0.1634,-0.1586,-0.1592,-0.1578,-0.1609,-0.1622,-0.1672,-0.1616,-0.1715,-0.1719,-0.1785,-0.1836,-0.1887,-0.2007,-0.1791,-0.1792,-0.1793,0,-0.2443,-0.227,-0.2256,-0.2187,-0.2055,-0.196,-0.1899,-0.1791,-0.1759,-0.1698,-0.1651,-0.1598,-0.1606,-0.1575,-0.1555,-0.1581,-0.1648,-0.1593,-0.1594,-0.1662,-0.1749,-0.1807,-0.1824,-0.1653,-0.1654,-0.1655,-0.1781,0,-0.2433,-0.2363,-0.2315,-0.2176,-0.2097,-0.2005,-0.1909,-0.1862,-0.1815,-0.175,-0.1702,-0.1656,-0.1598,-0.1586,-0.1557,-0.1563,-0.1581,-0.1569,-0.1578,-0.1585,-0.1638,-0.1648,-0.1523,-0.1522,-0.1522,-0.1522,0,0,-0.2547,-0.2422,-0.2351,-0.226,-0.2188,-0.2098,-0.2,-0.1936,-0.1787,-0.1763,-0.1762,-0.1649,-0.1616,-0.1564,-0.1559,-0.1532,-0.1564,-0.1538,-0.1568,-0.1573,-0.1577,-0.1628,-0.1638,-0.1521,-0.1521,-0.1521,-0.1521,0,-0.2508,-0.2471,-0.2397,-0.2314,-0.2176,-0.2087,-0.206,-0.1906,-0.1866,-0.1771,-0.1743,-0.1713,-0.1616,-0.159,-0.1562,-0.1529,-0.1557,-0.152,-0.1529,-0.1563,-0.1569,-0.1574,-0.1625,-0.1634,-0.152,-0.152,-0.152,0,-0.2543,-0.2448,-0.2414,-0.2262,-0.2168,-0.2068,-0.2021,-0.1917,-0.1846,-0.1803,-0.1723,-0.1694,-0.1639,-0.1592,-0.1572,-0.1572,-0.1558,-0.1528,-0.1529,-0.153,-0.1566,-0.1572,-0.1576,-0.152,-0.152,-0.1521,0,0,-0.2523,-0.2459,-0.231,-0.2243,-0.2196,-0.2055,-0.1989,-0.1925,-0.1829,-0.1797,-0.1743,-0.1699,-0.1654,-0.1631,-0.1587,-0.1536,-0.1557,-0.153,-0.153,-0.1531,-0.1532,-0.1567,-0.1572,-0.1521,-0.1521,-0.1522,0,0,-0.2499,-0.2347,-0.2318,-0.2243,-0.2122,-0.195,-0.191,-0.1847,-0.1774,-0.179,-0.1734,-0.1722,-0.1681,-0.1651,-0.1666,-0.1601,-0.1599,-0.1594,-0.1627,-0.1626,-0.1626,-0.1642,-0.1665,0,0,0,0,0,-0.2392,-0.2363,-0.2339,-0.2308,-0.2117,-0.1963,-0.1935,-0.1851,-0.1843,-0.1809,-0.1764,-0.1762,-0.1653,-0.1666,-0.1651,-0.165,-0.1533,-0.1531,-0.1529,-0.1559,-0.1559,-0.1558,0,0,0,0,0,0,-0.2379,-0.2344,-0.2338,-0.2172,-0.2127,-0.1965,-0.1947,-0.1922,-0.1846,-0.1842,-0.1766,-0.176,-0.1732,-0.1672,-0.1658,-0.1659,-0.1669,-0.1532,-0.153,-0.1529,-0.1559,-0.1558,-0.1558,0,0,0,0,0,-0.2368,-0.2339,-0.2067,-0.217,-0.2131,-0.2001,-0.195,-0.1929,-0.1871,-0.1801,-0.179,-0.1814,-0.1731,-0.1719,-0.1664,-0.1666,-0.1678,-0.1673,-0.1531,-0.1529,-0.1528,-0.1559,0,0,0,0,0,0,-0.236,-0.2313,-0.2056,-0.2039,-0.2197,-0.2008,-0.198,-0.1936,-0.1835,-0.1819,-0.1849,-0.1848,-0.173,-0.1721,-0.1712,-0.1671,-0.1686,-0.1681,-0.1678,-0.153,-0.1529,-0.1528,0,0,0,0,0,0,-0.2328,-0.2301,-0.2048,-0.2086,-0.2073,-0.2015,-0.1991,-0.1935,-0.1839,-0.1891,-0.1885,-0.1851,-0.1779,-0.1722,-0.1715,-0.1626,-0.1691,-0.1686,-0.1683,-0.1681,-0.1529,-0.1528,0,0,0,0,0,0,-0.2314,-0.229,-0.209,-0.208,-0.2069,-0.1874,-0.1968,-0.1802,-0.1796,-0.19,-0.1801,-0.1804,-0.1783,-0.1772,-0.1717,-0.1631,-0.1627,-0.1691,-0.1688,-0.1686,-0.1684,0,0,0,0,0,0,0,-0.2302,-0.2493,-0.2154,-0.2075,-0.2065,-0.1882,-0.1878,-0.1873,-0.1797,-0.1799,-0.1801,-0.1803,-0.1718,-0.1713,-0.1708,-0.1635,0,0,-0.1691,-0.1689,0,0,0,0,0,0,0,0,-0.2499,-0.2494,-0.2154,-0.215,-0.2147,-0.1881,-0.1878,-0.1874,-0.1797,-0.1799,-0.18,-0.1802,-0.1717,-0.1712,-0.1708,0,0,0,0,0,0,0,0,0,0,0,0,0,0,0,-0.2153,-0.215,0,-0.1881,-0.1878,-0.1875,-0.1797,-0.1799,-0.18,-0.1801,-0.1715,-0.1712,-0.1709,0,0,0,0,0,0,0,0,0,0,0,0,0,0,0,0,0,0,0,0,0,0,0,0,0,0,0,0,0,0,0,0,0,0,0,0,0,0,0,0,0,0,0,0,0,0,0,0,0,0,0,0,0,0,0,0,0,0,0,0,0,0,0,0,0,0,0,0,0]}]],[[{"header":{"parameterUnit":"kt","parameterCategory":2,"dx":1,"dy":1,"la1":30.253999710083008,"la2":30.299108505249023,"lo1":-89.0895004272461,"lo2":-89.04439544677734,"nx":28,"ny":28,"refTime":"2022-09-21T21:00:00:Z","depth":"2","parameterNumber":2,"parameterNumberName":"U-component_of_CURRENTS"},"data":[0.0161,0.0207,0.0243,0.0301,0.0361,0.0365,0.0364,0.0218,0.0135,0.0105,0.0164,-0.0163,-0.004,0.0023,0.0,0.0188,0.0305,0.0139,0.0383,0.0373,0.0405,0.0544,0.0373,0,0,0,0,0,0.0164,0.0203,0.027,0.0331,0.0367,0.0436,0.0431,0.0355,0.0346,0.0313,0.0246,0.0165,0.0041,0.0192,0.0413,0.0421,0.0405,0.0436,0.0421,0.0451,0.0481,0.0358,0.0166,0.0167,0.0168,0.017,0,0,0.0151,0.0179,0.0234,0.0335,0.0395,0.0409,0.0433,0.0463,0.0485,0.048,0.0465,0.0429,0.0347,0.043,0.05,0.07,0.0737,0.0725,0.0738,0.0757,0.0643,0.0561,0.0527,0.053,0.0532,0.0534,0.0536,0,0.0108,0.0154,0.0199,0.0289,0.0371,0.0417,0.0502,0.0519,0.0607,0.0654,0.0665,0.0635,0.0715,0.0692,0.0817,0.0816,0.1006,0.0954,0.1294,0.0798,0.0718,0.0695,0.0698,0.0733,0.0737,0.074,0.0743,0.0744,0.0055,0.0099,0.0196,0.0239,0.031,0.0419,0.0479,0.0579,0.0613,0.0733,0.0748,0.0886,0.0843,0.0985,0.1066,0.1153,0.1254,0.1046,0.0962,0.1192,0.1171,0.1157,0.1143,0.0787,0.0782,0.0777,0.0774,0,0.0021,0.0059,0.0139,0.0234,0.0272,0.0356,0.0478,0.0537,0.0645,0.0734,0.0791,0.0882,0.0982,0.1083,0.1225,0.1223,0.1292,0.1296,0.1052,0.1012,0.1166,0.1149,0.1294,0.1292,0.1289,0.1287,0.1286,0,-0.0015,0.0046,0.012,0.0167,0.0252,0.0315,0.0427,0.0501,0.0604,0.0668,0.0769,0.0819,0.0966,0.105,0.1107,0.1172,0.1254,0.118,0.1173,0.0981,0.0953,0.1135,0.1112,0.1321,0.132,0.1319,0.1318,0,-0.0036,0.0037,0.0098,0.0128,0.0212,0.0284,0.0345,0.0448,0.0505,0.0643,0.0694,0.0819,0.0904,0.0997,0.1064,0.1045,0.121,0.1181,0.1139,0.1131,0.0935,0.0902,0.1317,0.1317,0.1316,0.1316,0.1315,0,-0.0037,-0.0001,0.0074,0.0145,0.0169,0.0231,0.0336,0.0391,0.05,0.0548,0.0646,0.0684,0.0819,0.0797,0.096,0.0908,0.097,0.1005,0.1011,0.0854,0.0783,0.071,0.0815,0.1039,0.1037,0.1034,0.1032,0,-0.0071,-0.0007,0.0028,0.0101,0.0138,0.019,0.0249,0.0317,0.0374,0.0447,0.0523,0.0602,0.0604,0.0662,0.0737,0.0784,0.0877,0.0785,0.0862,0.0864,0.0755,0.0896,0.0683,0.0788,0.1002,0.1005,0.1007,0,-0.0098,-0.0026,-0.0009,0.0024,0.0088,0.0116,0.0189,0.0252,0.0307,0.0367,0.0439,0.0527,0.0553,0.057,0.0592,0.0666,0.0822,0.0649,0.0649,0.0711,0.0984,0.0867,0.0876,0.0828,0.0832,0.0835,0.0984,0,-0.0113,-0.0063,-0.0036,0.0016,0.005,0.009,0.0128,0.0175,0.021,0.0234,0.0327,0.0352,0.0399,0.043,0.0426,0.0552,0.0537,0.0501,0.0452,0.0559,0.0606,0.0626,0.0353,0.035,0.0347,0.0345,0,0,-0.0154,-0.0108,-0.0081,-0.0045,-0.0016,0.0007,0.0042,0.0073,0.0105,0.0137,0.0133,0.0211,0.0219,0.0307,0.0353,0.0342,0.0372,0.0341,0.0493,0.051,0.0525,0.0577,0.0599,0.0341,0.034,0.0339,0.0339,0,-0.0175,-0.0129,-0.0095,-0.007,-0.0026,-0.0019,0.0002,0.0025,0.0053,0.0098,0.0096,0.0149,0.0167,0.0196,0.0209,0.0305,0.0294,0.0316,0.0403,0.0471,0.0491,0.0509,0.0564,0.0585,0.0333,0.0333,0.0333,0,-0.0208,-0.0183,-0.016,-0.0117,-0.0095,-0.0067,-0.0078,-0.0034,-0.0003,-0.0035,0.0019,0.0031,0.0029,0.0089,0.0113,0.0084,0.0225,0.016,0.0171,0.0161,0.0227,0.025,0.027,0.0012,0.0011,0.001,0,0,-0.0225,-0.0187,-0.0167,-0.0123,-0.0106,-0.0091,-0.0072,-0.0061,-0.0046,-0.0032,-0.0029,-0.0017,0.0008,0.0028,0.003,0.008,0.0079,0.0125,0.014,0.0153,0.0151,0.0219,0.0241,0.0008,0.0008,0.0008,0,0,-0.0243,-0.0211,-0.0197,-0.0148,-0.0127,-0.0124,-0.0091,-0.0085,-0.0059,-0.0044,-0.0064,-0.0063,-0.0006,-0.003,-0.0058,0.0036,-0.0033,-0.0028,0.0072,0.009,0.0105,0.0103,-0.0099,0,0,0,0,0,-0.0256,-0.0217,-0.0205,-0.0194,-0.0151,-0.0129,-0.0125,-0.0107,-0.0098,-0.0075,-0.0065,-0.0086,-0.0044,-0.007,-0.007,0.0,-0.0021,-0.0016,-0.0011,0.0128,0.0147,0.0164,0,0,0,0,0,0,-0.0252,-0.024,-0.0206,-0.0201,-0.019,-0.0131,-0.0143,-0.0139,-0.01,-0.0097,-0.0088,-0.0087,-0.0107,-0.0071,-0.0071,-0.0003,-0.0099,-0.0019,-0.0015,-0.0011,0.0135,0.0151,0.0164,0,0,0,0,0,-0.0248,-0.0239,-0.0167,-0.0202,-0.0193,-0.0165,-0.0143,-0.014,-0.0104,-0.0118,-0.0116,-0.0086,-0.0107,-0.0106,-0.0072,-0.0001,-0.0099,-0.0099,-0.0016,-0.0013,-0.001,0.0142,0,0,0,0,0,0,-0.0246,-0.0246,-0.0165,-0.0162,-0.0198,-0.0167,-0.016,-0.014,-0.0128,-0.0124,-0.0121,-0.012,-0.0108,-0.0107,-0.0106,0.0002,-0.0099,-0.0099,-0.0099,-0.0014,-0.0011,-0.0008,0,0,0,0,0,0,-0.0251,-0.0244,-0.0164,-0.016,-0.0157,-0.0169,-0.0162,-0.0162,-0.0129,-0.0133,-0.013,-0.0121,-0.0109,-0.0107,-0.0106,-0.0107,-0.0099,-0.0099,-0.0099,-0.0099,-0.0011,-0.0009,0,0,0,0,0,0,-0.0248,-0.0242,-0.0161,-0.0158,-0.0156,-0.0128,-0.017,-0.0127,-0.0116,-0.0135,-0.0115,-0.0114,-0.011,-0.0109,-0.0107,-0.0108,-0.0108,-0.0099,-0.0099,-0.0099,-0.0099,0,0,0,0,0,0,0,-0.0246,-0.0284,-0.0176,-0.0157,-0.0155,-0.0137,-0.0137,-0.0136,-0.0116,-0.0116,-0.0115,-0.0115,-0.01,-0.01,-0.01,-0.0109,0,0,-0.0099,-0.0099,0,0,0,0,0,0,0,0,-0.0287,-0.0285,-0.0176,-0.0175,-0.0174,-0.0137,-0.0137,-0.0136,-0.0116,-0.0116,-0.0115,-0.0115,-0.01,-0.01,-0.01,0,0,0,0,0,0,0,0,0,0,0,0,0,0,0,-0.0176,-0.0175,0,-0.0137,-0.0137,-0.0137,-0.0116,-0.0116,-0.0115,-0.0115,-0.01,-0.01,-0.01,0,0,0,0,0,0,0,0,0,0,0,0,0,0,0,0,0,0,0,0,0,0,0,0,0,0,0,0,0,0,0,0,0,0,0,0,0,0,0,0,0,0,0,0,0,0,0,0,0,0,0,0,0,0,0,0,0,0,0,0,0,0,0,0,0,0,0,0,0]}],[{"header":{"parameterUnit":"kt","parameterCategory":2,"dx":1,"dy":1,"la1":30.253999710083008,"la2":30.299108505249023,"lo1":-89.0895004272461,"lo2":-89.04439544677734,"nx":28,"ny":28,"refTime":"2022-09-21T21:00:00:Z","depth":"2","parameterNumber":3,"parameterNumberName":"V-component_of_CURRENTS"},"data":[0.0979,0.0993,0.1001,0.11,0.1165,0.1227,0.1232,0.1218,0.1068,0.082,0.0585,0.0467,0.0152,-0.0104,-0.018,-0.0213,-0.021,-0.0212,0.01,-0.018,-0.0178,-0.0241,-0.0267,0,0,0,0,0,0.0954,0.0956,0.1008,0.104,0.111,0.1126,0.113,0.1113,0.1135,0.0969,0.0979,0.053,0.0398,0.016,0.0013,0.001,-0.0098,-0.0016,-0.0255,-0.0254,-0.0253,-0.0271,-0.0264,-0.0264,-0.0264,-0.0264,0,0,0.0909,0.0921,0.091,0.0957,0.1011,0.1042,0.1049,0.105,0.1057,0.0996,0.0993,0.0879,0.0573,0.0356,0.0281,0.0193,0.0225,0.0064,0.0054,0.0046,0.0053,0.0104,0.0141,0.0143,0.0145,0.0147,0.0148,0,0.0847,0.083,0.0829,0.0873,0.0899,0.0924,0.0925,0.0924,0.0847,0.086,0.0861,0.0861,0.0755,0.0554,0.0448,0.0343,0.0095,0.0098,0.0211,-0.0252,-0.0213,-0.0229,-0.0228,-0.0237,-0.0237,-0.0237,-0.0237,-0.0237,0.0755,0.077,0.0755,0.0783,0.0775,0.0785,0.0798,0.0743,0.0739,0.0697,0.0705,0.0661,0.0646,0.0554,0.0372,0.0254,0.0193,0.0088,-0.0019,0.0116,0.0105,0.0098,0.0092,-0.0236,-0.0236,-0.0236,-0.0237,0,0.0706,0.0675,0.0701,0.0672,0.0672,0.069,0.0672,0.0681,0.063,0.0618,0.0601,0.052,0.0456,0.0318,0.0165,0.0107,0.0033,0.0037,-0.0098,-0.0114,0.0064,0.0065,0.0132,0.0138,0.0142,0.0146,0.015,0,0.0616,0.0642,0.0596,0.0605,0.0634,0.0584,0.0599,0.0565,0.0521,0.0512,0.0411,0.0402,0.0209,0.0151,0.0031,-0.0,-0.0073,-0.0073,-0.0076,-0.0244,-0.0243,-0.0248,-0.0247,-0.0258,-0.0258,-0.0258,-0.0259,0,0.0553,0.0544,0.0557,0.055,0.0516,0.0516,0.0496,0.0442,0.0431,0.0365,0.0357,0.0246,0.0202,0.009,-0.0022,-0.0066,-0.0119,-0.0195,-0.0109,-0.0098,-0.025,-0.0248,-0.0259,-0.0259,-0.0259,-0.0259,-0.0259,0,0.0474,0.0466,0.048,0.047,0.0467,0.046,0.0435,0.0409,0.0342,0.0307,0.0239,0.0169,0.009,0.0025,-0.0089,-0.0086,-0.0148,-0.0205,-0.0206,-0.0067,-0.0081,-0.0191,-0.0214,-0.0203,-0.0203,-0.0202,-0.0202,0,0.0429,0.0429,0.039,0.0403,0.0408,0.0349,0.0335,0.029,0.0244,0.0212,0.0123,0.0078,0.0002,-0.0029,-0.0087,-0.0164,-0.0189,-0.0187,-0.0228,-0.0227,-0.0076,-0.0066,-0.0242,-0.0212,-0.0201,-0.0201,-0.0201,0,0.039,0.0342,0.0345,0.0348,0.0296,0.0283,0.0257,0.0221,0.0216,0.0137,0.0126,0.0022,-0.0023,-0.0051,-0.0112,-0.0154,-0.0183,-0.0186,-0.0188,-0.0146,-0.023,-0.0082,-0.0068,-0.0236,-0.0237,-0.0237,-0.02,0,0.034,0.0328,0.0323,0.0293,0.0269,0.0256,0.0207,0.0177,0.0143,0.0108,0.0048,-0.0027,-0.0075,-0.011,-0.0143,-0.0185,-0.0176,-0.0212,-0.0188,-0.0215,-0.0195,-0.0196,-0.0187,-0.0187,-0.0187,-0.0187,0,0,0.0328,0.0306,0.0253,0.0245,0.0233,0.0176,0.0177,0.0142,0.0084,0.0069,0.0046,-0.0048,-0.0087,-0.013,-0.0155,-0.0181,-0.0186,-0.0146,-0.0209,-0.0211,-0.0213,-0.0195,-0.0195,-0.0188,-0.0188,-0.0188,-0.0188,0,0.0309,0.0268,0.026,0.0233,0.0193,0.0166,0.0159,0.011,0.0089,0.0049,0.0011,-0.0041,-0.0085,-0.012,-0.014,-0.018,-0.0167,-0.0195,-0.0169,-0.0208,-0.0211,-0.0213,-0.0195,-0.0195,-0.0188,-0.0188,-0.0188,0,0.0293,0.0261,0.0246,0.0195,0.017,0.0156,0.0126,0.0098,0.0086,0.0046,0.002,-0.0028,-0.0066,-0.0105,-0.0122,-0.0111,-0.0145,-0.0142,-0.0143,-0.012,-0.016,-0.0163,-0.0166,-0.0126,-0.0125,-0.0125,0,0,0.0285,0.0259,0.0211,0.019,0.0175,0.0137,0.0118,0.0097,0.006,0.0044,0.0017,-0.0015,-0.0052,-0.0064,-0.0098,-0.0124,-0.0122,-0.0132,-0.0135,-0.0137,-0.0116,-0.0156,-0.0159,-0.0123,-0.0123,-0.0123,0,0,0.0283,0.023,0.0215,0.0186,0.0152,0.0108,0.0097,0.0077,0.004,0.004,0.0015,0.0007,-0.0033,-0.0044,-0.0021,-0.0079,-0.0071,-0.0076,-0.0056,-0.006,-0.0063,-0.0028,-0.0008,0,0,0,0,0,0.025,0.0236,0.0223,0.0213,0.0154,0.0115,0.0106,0.0078,0.0075,0.0061,0.0027,0.0038,-0.0046,-0.0026,-0.0031,-0.0033,-0.0101,-0.0105,-0.0108,-0.0091,-0.0095,-0.0099,0,0,0,0,0,0,0.0246,0.0234,0.0224,0.0181,0.0167,0.0115,0.0107,0.0099,0.0076,0.0073,0.0041,0.0037,0.0023,-0.0023,-0.0027,-0.0029,-0.0006,-0.0102,-0.0106,-0.0109,-0.0093,-0.0096,-0.0099,0,0,0,0,0,0.0242,0.0233,0.0145,0.0181,0.0169,0.0128,0.0107,0.01,0.008,0.0054,0.0048,0.006,0.0023,0.0018,-0.0025,-0.0027,-0.0003,-0.0005,-0.0105,-0.0107,-0.0109,-0.0094,0,0,0,0,0,0,0.024,0.0225,0.0142,0.0137,0.0184,0.013,0.012,0.0102,0.0062,0.0056,0.0073,0.0071,0.0023,0.0019,0.0016,-0.0027,-0.0001,-0.0002,-0.0003,-0.0107,-0.0109,-0.011,0,0,0,0,0,0,0.023,0.0222,0.014,0.0145,0.0141,0.0132,0.0123,0.0105,0.0063,0.0083,0.0081,0.0073,0.0036,0.002,0.0017,-0.001,0.0001,-0.0,-0.0001,-0.0002,-0.0108,-0.011,0,0,0,0,0,0,0.0226,0.0219,0.0146,0.0143,0.0139,0.0084,0.0116,0.0061,0.0055,0.0086,0.0055,0.0055,0.0038,0.0034,0.0018,-0.0008,-0.001,0.0001,0.0,-0.0001,-0.0001,0,0,0,0,0,0,0,0.0223,0.028,0.017,0.0141,0.0138,0.0094,0.0093,0.0092,0.0055,0.0055,0.0055,0.0055,0.0011,0.0009,0.0007,-0.0006,0,0,0.0001,0.0001,0,0,0,0,0,0,0,0,0.0283,0.0281,0.017,0.0169,0.0168,0.0094,0.0093,0.0092,0.0055,0.0055,0.0055,0.0055,0.001,0.0009,0.0007,0,0,0,0,0,0,0,0,0,0,0,0,0,0,0,0.017,0.0169,0,0.0094,0.0093,0.0092,0.0055,0.0055,0.0055,0.0055,0.001,0.0009,0.0008,0,0,0,0,0,0,0,0,0,0,0,0,0,0,0,0,0,0,0,0,0,0,0,0,0,0,0,0,0,0,0,0,0,0,0,0,0,0,0,0,0,0,0,0,0,0,0,0,0,0,0,0,0,0,0,0,0,0,0,0,0,0,0,0,0,0,0,0,0]}]],[[{"header":{"parameterUnit":"kt","parameterCategory":2,"dx":1,"dy":1,"la1":30.253999710083008,"la2":30.299108505249023,"lo1":-89.0895004272461,"lo2":-89.04439544677734,"nx":28,"ny":28,"refTime":"2022-09-21T21:00:00:Z","depth":"4","parameterNumber":2,"parameterNumberName":"U-component_of_CURRENTS"},"data":[-0.0484,-0.0481,-0.0466,-0.0394,-0.0347,-0.0314,-0.032,-0.0348,-0.0339,-0.0384,-0.037,-0.0398,-0.0372,-0.0418,-0.034,-0.0338,-0.0438,-0.0346,-0.0344,-0.0561,-0.0579,-0.0594,-0.0589,0,0,0,0,0,-0.0496,-0.0481,-0.0475,-0.0447,-0.043,-0.0415,-0.044,-0.0464,-0.0497,-0.0461,-0.0487,-0.0455,-0.0411,-0.0405,-0.0363,-0.0395,-0.0486,-0.0342,-0.0525,-0.0572,-0.0591,-0.058,0,0,0,0,0,0,-0.0506,-0.05,-0.0509,-0.0507,-0.0498,-0.0467,-0.0487,-0.0481,-0.0492,-0.0529,-0.0505,-0.0505,-0.0533,-0.0482,-0.0468,-0.0451,-0.049,-0.0515,-0.0536,-0.0555,-0.0533,-0.0448,-0.0289,0,0,0,0,0,-0.0512,-0.0529,-0.0534,-0.0533,-0.054,-0.0535,-0.0547,-0.0547,-0.0585,-0.0627,-0.0594,-0.0579,-0.0543,-0.0567,-0.0531,-0.0562,-0.0712,-0.0645,-0.0658,-0.0762,-0.0712,-0.0709,-0.072,-0.0665,-0.0667,-0.0668,-0.0669,0,-0.0532,-0.0535,-0.0557,-0.0557,-0.0568,-0.0586,-0.0594,-0.0638,-0.0646,-0.067,-0.0664,-0.067,-0.0692,-0.0637,-0.0701,-0.0709,-0.0719,-0.0693,-0.0804,-0.0743,-0.0735,-0.0741,-0.0747,-0.0685,-0.0684,-0.0682,-0.0681,0,-0.0547,-0.0557,-0.0565,-0.0588,-0.0595,-0.0607,-0.064,-0.0651,-0.0694,-0.0707,-0.0726,-0.077,-0.0783,-0.0823,-0.089,-0.0881,-0.0883,-0.0843,-0.0955,-0.0949,-0.0775,-0.0774,-0.071,-0.0705,-0.07,-0.0696,-0.0693,0,-0.0567,-0.0573,-0.0589,-0.0593,-0.0603,-0.0635,-0.0656,-0.0685,-0.0721,-0.0732,-0.0796,-0.0803,-0.0916,-0.0927,-0.0983,-0.0948,-0.1027,-0.0952,-0.0936,-0.1108,-0.1105,-0.1106,-0.1104,-0.1134,-0.1134,-0.1135,-0.1135,0,-0.0584,-0.0596,-0.0599,-0.0608,-0.0637,-0.0652,-0.0673,-0.0713,-0.0732,-0.078,-0.0795,-0.0865,-0.0899,-0.0965,-0.1008,-0.1048,-0.1053,-0.1106,-0.097,-0.0957,-0.1108,-0.1105,-0.1136,-0.1136,-0.1136,-0.1136,-0.1136,0,-0.0604,-0.0605,-0.061,-0.0633,-0.0638,-0.0657,-0.0694,-0.0717,-0.0756,-0.0781,-0.0824,-0.0859,-0.0926,-0.0957,-0.1034,-0.1043,-0.1067,-0.109,-0.1088,-0.0949,-0.0927,-0.1008,-0.104,-0.104,-0.1039,-0.1039,-0.1039,0,-0.0614,-0.0613,-0.0629,-0.0645,-0.0648,-0.068,-0.0703,-0.0731,-0.076,-0.0785,-0.0828,-0.0869,-0.0913,-0.0948,-0.0995,-0.1047,-0.1062,-0.1063,-0.1073,-0.1072,-0.0927,-0.0925,-0.1105,-0.1037,-0.1037,-0.1037,-0.1037,0,-0.0621,-0.0633,-0.0637,-0.0641,-0.067,-0.0681,-0.0709,-0.0732,-0.0747,-0.0786,-0.0806,-0.0882,-0.0907,-0.0936,-0.0976,-0.1017,-0.105,-0.1048,-0.1049,-0.1004,-0.1087,-0.0938,-0.0925,-0.1098,-0.11,-0.1101,-0.1036,0,-0.0631,-0.0638,-0.0642,-0.0654,-0.0669,-0.068,-0.0704,-0.0723,-0.0747,-0.0765,-0.0809,-0.085,-0.0896,-0.0923,-0.0954,-0.101,-0.0997,-0.1019,-0.1009,-0.1042,-0.1005,-0.1007,-0.0986,-0.0986,-0.0985,-0.0985,0,0,-0.0635,-0.0636,-0.0648,-0.0652,-0.0664,-0.0684,-0.0691,-0.0711,-0.0741,-0.0752,-0.0764,-0.0837,-0.0867,-0.0916,-0.0945,-0.0955,-0.0962,-0.0969,-0.1027,-0.1031,-0.1036,-0.1003,-0.1005,-0.0985,-0.0985,-0.0985,-0.0985,0,-0.0633,-0.0643,-0.0644,-0.0655,-0.0669,-0.0683,-0.0687,-0.0708,-0.0723,-0.0753,-0.0776,-0.081,-0.0861,-0.0888,-0.0911,-0.0949,-0.0953,-0.0975,-0.0992,-0.1024,-0.1029,-0.1033,-0.1002,-0.1003,-0.0984,-0.0984,-0.0984,0,-0.0631,-0.0638,-0.0642,-0.0655,-0.0667,-0.0677,-0.0686,-0.0701,-0.0716,-0.0734,-0.0765,-0.0792,-0.0828,-0.0869,-0.0888,-0.0886,-0.0941,-0.0935,-0.0937,-0.0934,-0.0966,-0.0971,-0.0977,-0.0908,-0.0908,-0.0907,0,0,-0.0628,-0.0634,-0.0646,-0.0655,-0.0659,-0.0679,-0.0689,-0.07,-0.0721,-0.0731,-0.0754,-0.0785,-0.0818,-0.0838,-0.0861,-0.0898,-0.0894,-0.0925,-0.0929,-0.0932,-0.093,-0.0962,-0.0968,-0.0906,-0.0906,-0.0906,0,0,-0.0629,-0.064,-0.0644,-0.0653,-0.0666,-0.0685,-0.0696,-0.0707,-0.0731,-0.0737,-0.0758,-0.0765,-0.08,-0.0816,-0.0795,-0.0869,-0.0856,-0.0861,-0.0858,-0.0862,-0.0866,-0.0856,-0.0801,0,0,0,0,0,-0.0632,-0.0637,-0.064,-0.0643,-0.0666,-0.0681,-0.0686,-0.0704,-0.0713,-0.0719,-0.0743,-0.0749,-0.0814,-0.0796,-0.0802,-0.0831,-0.0888,-0.0892,-0.0894,-0.0899,-0.0904,-0.0908,0,0,0,0,0,0,-0.0633,-0.0636,-0.064,-0.0658,-0.0664,-0.0681,-0.069,-0.0695,-0.0712,-0.0714,-0.0745,-0.075,-0.0763,-0.0793,-0.0799,-0.0826,-0.0799,-0.089,-0.0892,-0.0895,-0.0901,-0.0905,-0.0908,0,0,0,0,0,-0.0635,-0.0637,-0.0667,-0.0659,-0.0664,-0.0688,-0.069,-0.0695,-0.071,-0.0733,-0.0739,-0.0724,-0.0762,-0.0768,-0.0797,-0.0824,-0.0795,-0.0797,-0.0891,-0.0893,-0.0895,-0.0903,0,0,0,0,0,0,-0.0636,-0.0644,-0.0669,-0.0671,-0.0658,-0.0688,-0.0692,-0.0694,-0.0729,-0.0734,-0.0712,-0.0713,-0.0762,-0.0767,-0.0772,-0.0823,-0.0792,-0.0794,-0.0796,-0.0893,-0.0895,-0.0896,0,0,0,0,0,0,-0.0643,-0.0646,-0.067,-0.0668,-0.0671,-0.0688,-0.0691,-0.0712,-0.0729,-0.0706,-0.0707,-0.0712,-0.0757,-0.0766,-0.0769,-0.0801,-0.079,-0.0792,-0.0793,-0.0794,-0.0894,-0.0896,0,0,0,0,0,0,-0.0645,-0.0648,-0.0668,-0.067,-0.0672,-0.0704,-0.0707,-0.0731,-0.0723,-0.0704,-0.0723,-0.0723,-0.0756,-0.076,-0.0768,-0.0797,-0.08,-0.079,-0.0791,-0.0792,-0.0793,0,0,0,0,0,0,0,-0.0647,-0.0621,-0.0652,-0.0671,-0.0673,-0.0696,-0.0697,-0.0698,-0.0723,-0.0723,-0.0723,-0.0723,-0.0779,-0.0781,-0.0783,-0.0795,0,0,-0.079,-0.0791,0,0,0,0,0,0,0,0,-0.062,-0.0621,-0.0652,-0.0653,-0.0653,-0.0696,-0.0697,-0.0698,-0.0723,-0.0723,-0.0723,-0.0723,-0.078,-0.0781,-0.0783,0,0,0,0,0,0,0,0,0,0,0,0,0,0,0,-0.0652,-0.0653,0,-0.0697,-0.0697,-0.0698,-0.0723,-0.0723,-0.0723,-0.0723,-0.078,-0.0781,-0.0783,0,0,0,0,0,0,0,0,0,0,0,0,0,0,0,0,0,0,0,0,0,0,0,0,0,0,0,0,0,0,0,0,0,0,0,0,0,0,0,0,0,0,0,0,0,0,0,0,0,0,0,0,0,0,0,0,0,0,0,0,0,0,0,0,0,0,0,0,0]}],[{"header":{"parameterUnit":"kt","parameterCategory":2,"dx":1,"dy":1,"la1":30.253999710083008,"la2":30.299108505249023,"lo1":-89.0895004272461,"lo2":-89.04439544677734,"nx":28,"ny":28,"refTime":"2022-09-21T21:00:00:Z","depth":"4","parameterNumber":3,"parameterNumberName":"V-component_of_CURRENTS"},"data":[-0.0719,-0.0756,-0.0764,-0.0826,-0.0867,-0.0944,-0.0981,-0.0998,-0.0964,-0.0969,-0.0926,-0.0926,-0.0862,-0.0914,-0.0812,-0.0807,-0.0863,-0.0784,-0.0782,-0.0906,-0.0917,-0.0927,-0.0906,0,0,0,0,0,-0.0716,-0.0733,-0.0778,-0.0834,-0.0904,-0.0944,-0.1,-0.1018,-0.1036,-0.0999,-0.1003,-0.0959,-0.0899,-0.0892,-0.0825,-0.088,-0.0887,-0.0804,-0.0909,-0.0913,-0.0925,-0.0901,0,0,0,0,0,0,-0.0716,-0.0737,-0.0779,-0.0828,-0.0899,-0.0952,-0.0982,-0.0997,-0.1016,-0.104,-0.1023,-0.1013,-0.1025,-0.0958,-0.0921,-0.088,-0.0875,-0.0884,-0.0897,-0.0908,-0.0883,-0.0829,-0.0748,0,0,0,0,0,-0.0708,-0.0734,-0.0769,-0.0828,-0.0884,-0.0942,-0.1,-0.1009,-0.1059,-0.1097,-0.1075,-0.1062,-0.1032,-0.1016,-0.0973,-0.0945,-0.105,-0.0997,-0.1004,-0.1019,-0.0987,-0.0966,-0.097,-0.097,-0.0971,-0.0972,-0.0973,0,-0.0693,-0.072,-0.0786,-0.0819,-0.0857,-0.0921,-0.0968,-0.1026,-0.1054,-0.1105,-0.112,-0.1138,-0.1158,-0.1077,-0.1094,-0.1048,-0.1031,-0.1028,-0.1044,-0.1006,-0.0982,-0.0983,-0.0982,-0.0983,-0.0982,-0.0981,-0.098,0,-0.0681,-0.0711,-0.0764,-0.0827,-0.0855,-0.0899,-0.0975,-0.1017,-0.1069,-0.1117,-0.1147,-0.1202,-0.1195,-0.12,-0.1207,-0.1175,-0.1141,-0.11,-0.1179,-0.1157,-0.1002,-0.0998,-0.0998,-0.0995,-0.0992,-0.0989,-0.0987,0,-0.0666,-0.071,-0.0757,-0.0784,-0.0847,-0.0889,-0.0959,-0.1006,-0.1064,-0.1102,-0.1163,-0.1187,-0.1241,-0.1244,-0.1231,-0.1174,-0.1235,-0.1121,-0.1096,-0.1188,-0.1184,-0.1171,-0.1164,-0.1237,-0.1237,-0.1237,-0.1237,0,-0.0637,-0.0701,-0.0748,-0.0769,-0.0834,-0.0877,-0.0918,-0.0982,-0.1015,-0.1096,-0.1124,-0.1188,-0.1218,-0.1231,-0.1216,-0.1217,-0.1221,-0.1216,-0.1107,-0.1098,-0.1169,-0.1161,-0.1238,-0.1238,-0.1238,-0.1238,-0.1238,0,-0.0629,-0.0656,-0.0718,-0.0776,-0.0793,-0.084,-0.091,-0.0953,-0.1016,-0.1045,-0.1097,-0.112,-0.1177,-0.1155,-0.1191,-0.1181,-0.117,-0.1159,-0.1157,-0.1051,-0.0997,-0.1037,-0.1109,-0.1108,-0.1108,-0.1107,-0.1106,0,-0.0586,-0.0641,-0.0665,-0.073,-0.0759,-0.0788,-0.0838,-0.0885,-0.092,-0.0971,-0.1001,-0.1058,-0.1054,-0.1082,-0.1104,-0.1113,-0.1125,-0.1109,-0.1088,-0.1087,-0.0985,-0.103,-0.1115,-0.1097,-0.1098,-0.1099,-0.11,0,-0.0551,-0.0599,-0.0609,-0.0633,-0.0681,-0.0708,-0.0763,-0.0815,-0.085,-0.0894,-0.0946,-0.1008,-0.1018,-0.1038,-0.1046,-0.1063,-0.1105,-0.1045,-0.1044,-0.1026,-0.1131,-0.103,-0.1025,-0.1106,-0.1108,-0.1109,-0.1093,0,-0.0529,-0.0561,-0.0579,-0.0619,-0.0647,-0.068,-0.0709,-0.0743,-0.0766,-0.0791,-0.0857,-0.0883,-0.0932,-0.0943,-0.0949,-0.101,-0.0985,-0.0975,-0.094,-0.0995,-0.0977,-0.0982,-0.0904,-0.0903,-0.0902,-0.0902,0,0,-0.0484,-0.0518,-0.0527,-0.0557,-0.0581,-0.059,-0.0627,-0.0653,-0.07,-0.0724,-0.0718,-0.0803,-0.082,-0.088,-0.0906,-0.0909,-0.0904,-0.09,-0.0967,-0.0974,-0.0981,-0.0968,-0.0974,-0.09,-0.09,-0.09,-0.0899,0,-0.0471,-0.0486,-0.0513,-0.0534,-0.0562,-0.0577,-0.0589,-0.0621,-0.0641,-0.0694,-0.0701,-0.074,-0.0787,-0.081,-0.0826,-0.0892,-0.0868,-0.0898,-0.0937,-0.0958,-0.0967,-0.0974,-0.0963,-0.0969,-0.0897,-0.0897,-0.0897,0,-0.0442,-0.0456,-0.0471,-0.0503,-0.0521,-0.0553,-0.0543,-0.0574,-0.0607,-0.0601,-0.0658,-0.0677,-0.0698,-0.0748,-0.077,-0.075,-0.0826,-0.0807,-0.0812,-0.0819,-0.0839,-0.0849,-0.0858,-0.0741,-0.0741,-0.074,0,0,-0.043,-0.0453,-0.0473,-0.0501,-0.0511,-0.0533,-0.0551,-0.0561,-0.0587,-0.0601,-0.0622,-0.0646,-0.0679,-0.0694,-0.0722,-0.0764,-0.0756,-0.0789,-0.0796,-0.0802,-0.0813,-0.0834,-0.0844,-0.0739,-0.0739,-0.0738,0,0,-0.0424,-0.0446,-0.045,-0.0481,-0.0504,-0.0527,-0.0549,-0.0558,-0.0591,-0.0593,-0.0601,-0.0606,-0.0657,-0.0657,-0.0633,-0.071,-0.0679,-0.0684,-0.0711,-0.072,-0.0727,-0.0733,-0.061,0,0,0,0,0,-0.0418,-0.0442,-0.0445,-0.0452,-0.0493,-0.0525,-0.0532,-0.0547,-0.0547,-0.0566,-0.0587,-0.0575,-0.0647,-0.0626,-0.0633,-0.0665,-0.0716,-0.072,-0.0724,-0.0769,-0.0779,-0.0787,0,0,0,0,0,0,-0.0421,-0.0429,-0.0444,-0.0466,-0.0476,-0.0524,-0.0513,-0.0518,-0.0545,-0.0545,-0.0573,-0.0575,-0.0577,-0.0623,-0.0629,-0.0659,-0.0608,-0.0718,-0.0721,-0.0724,-0.0772,-0.078,-0.0787,0,0,0,0,0,-0.0423,-0.043,-0.049,-0.0467,-0.0475,-0.05,-0.0513,-0.0517,-0.0542,-0.0553,-0.0557,-0.0552,-0.0577,-0.0583,-0.0626,-0.0657,-0.0604,-0.0606,-0.072,-0.0723,-0.0725,-0.0776,0,0,0,0,0,0,-0.0425,-0.0438,-0.0493,-0.0496,-0.0458,-0.0498,-0.0504,-0.0515,-0.0548,-0.0552,-0.0531,-0.0531,-0.0577,-0.0582,-0.0586,-0.0657,-0.0601,-0.0603,-0.0604,-0.0722,-0.0724,-0.0726,0,0,0,0,0,0,-0.0435,-0.0441,-0.0494,-0.0482,-0.0485,-0.0496,-0.0502,-0.0527,-0.0548,-0.0525,-0.0526,-0.053,-0.0566,-0.0581,-0.0585,-0.0625,-0.0598,-0.06,-0.0602,-0.0603,-0.0724,-0.0725,0,0,0,0,0,0,-0.0438,-0.0443,-0.0482,-0.0483,-0.0485,-0.0527,-0.0519,-0.0559,-0.0544,-0.0523,-0.0542,-0.0541,-0.0565,-0.0569,-0.0584,-0.0623,-0.0625,-0.0598,-0.06,-0.0601,-0.0601,0,0,0,0,0,0,0,-0.044,-0.0398,-0.047,-0.0484,-0.0486,-0.0528,-0.0529,-0.053,-0.0544,-0.0543,-0.0542,-0.0541,-0.0585,-0.0588,-0.059,-0.0621,0,0,-0.0598,-0.0599,0,0,0,0,0,0,0,0,-0.0397,-0.0398,-0.047,-0.0471,-0.0472,-0.0528,-0.0529,-0.053,-0.0543,-0.0543,-0.0542,-0.0542,-0.0586,-0.0588,-0.059,0,0,0,0,0,0,0,0,0,0,0,0,0,0,0,-0.047,-0.0471,0,-0.0528,-0.0529,-0.053,-0.0543,-0.0543,-0.0542,-0.0542,-0.0587,-0.0588,-0.059,0,0,0,0,0,0,0,0,0,0,0,0,0,0,0,0,0,0,0,0,0,0,0,0,0,0,0,0,0,0,0,0,0,0,0,0,0,0,0,0,0,0,0,0,0,0,0,0,0,0,0,0,0,0,0,0,0,0,0,0,0,0,0,0,0,0,0,0,0]}]]]